User: anonymous   Login
Location: Unspecified
(0.0000°N, 0.0000°E)
Time: 03:49:23
(UTC+02:00)
Language:

Cosmos 494 Rocket - Orbit

View from above orbital plane
View from above orbital plane
View from above satellite
View from above satellite

Ground track
Ground track

The orbit data is extracted from the following two-line orbital elements,

1  6061U 72043B   16207.92704272 +.00000074 +00000-0 +31543-4 0  9999
2  6061 074.0562 062.7068 0020953 274.7246 085.1517 14.40464774311080
Epoch (UTC): 25 July 2016 22:14:56
Eccentricity: 0.0020953
inclination: 74.0562°
perigee height: 742 km
apogee height: 772 km
right ascension of ascending node: 62.7068°
argument of perigee: 274.7246°
revolutions per day: 14.40464774
mean anomaly at epoch: 85.1517°
orbit number at epoch: 31108

The dashed part of the orbit path shows where the satellite is in the earth's shadow,  

DLR